Weather History for Black River Falls, WI

Change the Weather History Date:

Tuesday, November 22, 2011

  Actual Average (KLSE) Record (KLSE)
Temperature  
Mean Temperature 35 °F 32 °F  
Max Temperature 44 °F 40 °F 64 °F (2012)
Min Temperature 24 °F 25 °F -3 °F (1880)
Degree Days  
Heating Degree Days 30 33  
Month to date heating degree days 590  
Since 1 July heating degree days 1218  
Cooling Degree Days 0 0  
Month to date cooling degree days 0  
Year to date cooling degree days 782  
Moisture  
Dew Point 30 °F    
Average Humidity 87    
Maximum Humidity 100    
Minimum Humidity 61    
Precipitation  
Precipitation 0.00 in 0.07 in 1.44 in (1963)
Month to date precipitation 1.49  
Year to date precipitation 31.18  
Sea Level Pressure  
Sea Level Pressure 30.11 in    
Wind  
Wind Speed 3 mph (NE)    
Max Wind Speed 7 mph    
Max Gust Speed -    
Visibility 7 miles    
Events      
T = Trace of Precipitation, MM = Missing Value Source: NWS Daily Summary

Daily Weather History Graph

Daily Weather History Graph

Search for Another Location

Airport:

Trip Planner

Search our weather history database for the weather conditions in past years. The results will help you decide how hot, cold, wet, or windy it might be!

Date:

Astronomy

Nov. 22, 2011 Rise Set
Actual Time 7:07 AM CST 4:30 PM CST
Civil Twilight 6:35 AM CST 5:02 PM CST
Nautical Twilight 6:00 AM CST 5:38 PM CST
Astronomical Twilight 5:25 AM CST 6:12 PM CST
Moon 3:54 AM CST (11/22) 2:33 PM CST (11/22)
Length of Visible Light 10h 26m
Length of Day
9h 22m
Waning Crescent, 9% of the Moon is Illuminated
Nov 22
Waning Crescent
Nov 25
New
Dec 2
First Quarter
Dec 10
Full
Dec 17
Last Quarter

Hourly Weather History & Observations

Time (CST) Temp. Windchill Dew Point Humidity Pressure Visibility Wind Dir Wind Speed Gust Speed Precip Events Conditions
12:15 AM 28.4 °F - 26.6 °F 93% 30.25 in 7.0 mi Calm Calm - N/A   Overcast
12:35 AM 28.4 °F - 26.6 °F 93% 30.25 in 7.0 mi Calm Calm - N/A   Overcast
12:55 AM 28.4 °F - 26.6 °F 93% 30.24 in 7.0 mi Calm Calm - N/A   Overcast
1:15 AM 30.2 °F 26.7 °F 30.2 °F 100% 30.24 in 7.0 mi NE 3.5 mph - N/A   Overcast
1:35 AM 30.2 °F 26.7 °F 28.4 °F 93% 30.24 in 7.0 mi North 3.5 mph - N/A   Overcast
1:55 AM 30.2 °F - 28.4 °F 93% 30.23 in 7.0 mi Calm Calm - N/A   Overcast
2:15 AM 30.2 °F - 28.4 °F 93% 30.23 in 7.0 mi Calm Calm - N/A   Overcast
2:35 AM 30.2 °F - 28.4 °F 93% 30.23 in 7.0 mi Calm Calm - N/A   Overcast
2:55 AM 30.2 °F - 30.2 °F 100% 30.23 in 5.0 mi Calm Calm - N/A   Overcast
3:15 AM 30.2 °F - 30.2 °F 100% 30.22 in 5.0 mi Calm Calm - N/A   Overcast
3:35 AM 30.2 °F - 30.2 °F 100% 30.21 in 5.0 mi Calm Calm - N/A   Overcast
3:55 AM 30.2 °F 26.7 °F 30.2 °F 100% 30.20 in 5.0 mi NE 3.5 mph - N/A   Overcast
4:35 AM 30.2 °F 24.3 °F 28.4 °F 93% 30.19 in 7.0 mi NE 5.8 mph - N/A   Overcast
4:55 AM 30.2 °F 24.3 °F 30.2 °F 100% 30.18 in 5.0 mi NE 5.8 mph - N/A   Overcast
5:15 AM 32.0 °F 26.4 °F 30.2 °F 93% 30.17 in 5.0 mi ENE 5.8 mph - N/A   Overcast
5:55 AM 32.0 °F 25.6 °F 30.2 °F 93% 30.17 in 5.0 mi ENE 6.9 mph - N/A   Overcast
6:15 AM 32.0 °F 26.4 °F 30.2 °F 93% 30.16 in 4.0 mi East 5.8 mph - N/A   Overcast
6:35 AM 32.0 °F 27.5 °F 30.2 °F 93% 30.17 in 3.0 mi East 4.6 mph - N/A   Overcast
6:55 AM 32.0 °F 27.5 °F 30.2 °F 93% 30.16 in 3.0 mi ENE 4.6 mph - N/A   Overcast
7:15 AM 32.0 °F 27.5 °F 30.2 °F 93% 30.16 in 4.0 mi ENE 4.6 mph - N/A   Overcast
7:35 AM 32.0 °F 28.7 °F 30.2 °F 93% 30.16 in 4.0 mi East 3.5 mph - N/A   Overcast
7:55 AM 32.0 °F - 30.2 °F 93% 30.16 in 5.0 mi Calm Calm - N/A   Overcast
8:15 AM 32.0 °F 27.5 °F 30.2 °F 93% 30.16 in 5.0 mi ENE 4.6 mph - N/A   Overcast
8:35 AM 32.0 °F 27.5 °F 32.0 °F 100% 30.16 in 5.0 mi East 4.6 mph - N/A   Overcast
8:55 AM 32.0 °F 27.5 °F 32.0 °F 100% 30.15 in 7.0 mi ENE 4.6 mph - N/A   Overcast
9:15 AM 33.8 °F 29.6 °F 32.0 °F 93% 30.14 in 7.0 mi NE 4.6 mph - N/A   Overcast
9:35 AM 33.8 °F 28.6 °F 32.0 °F 93% 30.13 in 7.0 mi ENE 5.8 mph - N/A   Overcast
9:55 AM 33.8 °F 28.6 °F 32.0 °F 93% 30.12 in 7.0 mi NE 5.8 mph - N/A   Overcast
10:15 AM 35.6 °F 32.8 °F 32.0 °F 87% 30.11 in 10.0 mi ENE 3.5 mph - N/A   Overcast
10:35 AM 35.6 °F 31.7 °F 32.0 °F 87% 30.11 in 10.0 mi NE 4.6 mph - N/A   Overcast
10:55 AM 37.4 °F 32.8 °F 32.0 °F 81% 30.11 in 10.0 mi East 5.8 mph - N/A   Overcast
11:15 AM 37.4 °F 32.8 °F 32.0 °F 81% 30.08 in 10.0 mi ESE 5.8 mph - N/A   Mostly Cloudy
11:35 AM 39.2 °F 35.9 °F 32.0 °F 75% 30.08 in 10.0 mi NNE 4.6 mph - N/A   Mostly Cloudy
11:55 AM 41.0 °F 37.1 °F 32.0 °F 70% 30.07 in 10.0 mi North 5.8 mph - N/A   Scattered Clouds
12:15 PM 41.0 °F 38.0 °F 32.0 °F 70% 30.05 in 10.0 mi ENE 4.6 mph - N/A   Clear
12:35 PM 42.8 °F 38.6 °F 32.0 °F 66% 30.04 in 10.0 mi ENE 6.9 mph - N/A   Clear
12:55 PM 42.8 °F 40.1 °F 32.0 °F 66% 30.03 in 10.0 mi North 4.6 mph - N/A   Clear
1:15 PM 42.8 °F 41.1 °F 32.0 °F 66% 30.02 in 10.0 mi NE 3.5 mph - N/A   Clear
1:35 PM 42.8 °F 39.3 °F 32.0 °F 66% 30.01 in 10.0 mi NE 5.8 mph - N/A   Clear
1:55 PM 42.8 °F 41.1 °F 32.0 °F 66% 30.00 in 10.0 mi NNE 3.5 mph - N/A   Clear
2:15 PM 44.6 °F 41.4 °F 32.0 °F 61% 30.00 in 10.0 mi NNE 5.8 mph - N/A   Clear
2:35 PM 44.6 °F 42.2 °F 32.0 °F 61% 29.99 in 10.0 mi NNE 4.6 mph - N/A   Clear
2:55 PM 42.8 °F 39.3 °F 32.0 °F 66% 30.00 in 10.0 mi NNE 5.8 mph - N/A   Clear
3:15 PM 42.8 °F 38.6 °F 32.0 °F 66% 30.00 in 10.0 mi North 6.9 mph - N/A   Clear
3:35 PM 42.8 °F 39.3 °F 32.0 °F 66% 30.01 in 10.0 mi NNE 5.8 mph - N/A   Clear
4:15 PM 41.0 °F 36.4 °F 32.0 °F 70% 30.02 in 10.0 mi NNE 6.9 mph - N/A   Scattered Clouds
4:35 PM 37.4 °F 33.8 °F 32.0 °F 81% 30.02 in 10.0 mi NNE 4.6 mph - N/A   Scattered Clouds
4:55 PM 35.6 °F 31.7 °F 32.0 °F 87% 30.02 in 10.0 mi ENE 4.6 mph - N/A   Clear
5:15 PM 33.8 °F 30.8 °F 30.2 °F 87% 30.03 in 10.0 mi NE 3.5 mph - N/A   Clear
5:35 PM 33.8 °F 30.8 °F 32.0 °F 93% 30.04 in 10.0 mi North 3.5 mph - N/A   Scattered Clouds
5:55 PM 32.0 °F - 32.0 °F 100% 30.04 in 7.0 mi Calm Calm - N/A   Mostly Cloudy
6:15 PM 32.0 °F - 30.2 °F 93% 30.05 in 7.0 mi Calm Calm - N/A   Scattered Clouds
7:15 PM 28.4 °F - 28.4 °F 100% 30.05 in 4.0 mi Calm Calm - N/A   Clear
7:35 PM 26.6 °F - 26.6 °F 100% 30.05 in 3.0 mi Calm Calm - N/A   Clear
7:55 PM 28.4 °F - 26.6 °F 93% 30.06 in 1.8 mi Calm Calm - N/A   Mist
8:15 PM 26.6 °F - 26.6 °F 100% 30.06 in 2.0 mi Calm Calm - N/A   Clear
8:35 PM 24.8 °F - 24.8 °F 100% 30.06 in 2.5 mi Calm Calm - N/A   Clear
8:55 PM 24.8 °F - 23.0 °F 93% 30.06 in 3.0 mi Calm Calm - N/A   Clear
9:15 PM 23.0 °F - 23.0 °F 100% 30.06 in 3.0 mi Calm Calm - N/A   Clear
9:35 PM 23.0 °F - 23.0 °F 100% 30.07 in 4.0 mi Calm Calm - N/A   Clear
9:55 PM 24.8 °F - 23.0 °F 93% 30.07 in 2.0 mi Calm Calm - N/A   Clear
10:15 PM 23.0 °F - 23.0 °F 100% 30.08 in 3.0 mi Calm Calm - N/A   Scattered Clouds
10:35 PM 23.0 °F - 23.0 °F 100% 30.08 in 3.0 mi Calm Calm - N/A   Scattered Clouds
10:55 PM 23.0 °F - 21.2 °F 93% 30.08 in 4.0 mi Calm Calm - N/A   Clear
11:15 PM 21.2 °F - 21.2 °F 100% 30.08 in 4.0 mi Calm Calm - N/A   Clear
11:35 PM 21.2 °F - 21.2 °F 100% 30.08 in 4.0 mi Calm Calm - N/A   Clear
11:55 PM 21.2 °F - 19.4 °F 93% 30.08 in 5.0 mi Calm Calm - N/A   Scattered Clouds